Stations météo

réclame
Mon MeteoGroup
Camborne, Grande-Bretagne (3808): Température de l'air & dewpoint: 19.06.2018 20:00:00 - 25.06.2018 20:00:00 (BST)Camborne, Grande-Bretagne (3808): Température de l'air -20cm & Température de l'air -100cm: 19.06.2018 20:00:00 - 25.06.2018 20:00:00 (BST)Camborne, Grande-Bretagne (3808): Vitesse du vent: 19.06.2018 20:00:00 - 25.06.2018 20:00:00 (BST)Camborne, Grande-Bretagne (3808): Direction du vent: 19.06.2018 20:00:00 - 25.06.2018 20:00:00 (BST)Camborne, Grande-Bretagne (3808): reduced air pressure: 19.06.2018 20:00:00 - 25.06.2018 20:00:00 (BST)Camborne, Grande-Bretagne (3808): visibility: 19.06.2018 20:00:00 - 25.06.2018 20:00:00 (BST)Camborne, Grande-Bretagne (3808): Ensoleillement: 19.06.2018 20:00:00 - 25.06.2018 20:00:00 (BST)Camborne, Grande-Bretagne (3808): Quantités de précipitations: 19.06.2018 20:00:00 - 25.06.2018 20:00:00 (BST)
Date & Time tt [°C] td [°C] tt -20cm [°C] tt -100cm [°C] ff [km/h] ff [knt] dd ppp [hPa] vv [km] sd [min] rr [mm]
25.06.2018 20:00:00 20,4 11,5 - - 11 6 NNE 1025,8 35 60 0,0
25.06.2018 19:00:00 20,8 11,7 - - 15 8 NNE 1025,7 40 60 0,0
25.06.2018 18:00:00 21,4 12,4 - - 15 8 NNE 1025,7 25 60 0,0
25.06.2018 17:00:00 21,4 13,5 - - 13 7 N 1025,9 25 60 0,0
25.06.2018 16:00:00 23,7 11,7 - - 11 6 SE 1026,0 40 60 0,0
25.06.2018 15:00:00 22,8 11,7 - - 15 8 ESE 1026,4 35 60 0,0
25.06.2018 14:00:00 22,5 11,6 - - 18 10 ESE 1026,3 40 60 0,0
25.06.2018 13:00:00 22,4 11,5 - - 18 10 ESE 1026,2 40 60 0,0
25.06.2018 12:00:00 22,1 11,7 - - 15 8 SE 1026,3 40 60 0,0
25.06.2018 11:00:00 21,5 10,6 - - 18 10 ESE 1026,2 40 60 0,0
25.06.2018 10:00:00 21,5 10,7 17,5 16,2 15 8 ESE 1026,0 40 60 0,0
25.06.2018 09:00:00 19,7 10,8 - - 13 7 SE 1026,1 40 60 0,0
25.06.2018 08:00:00 18,1 10,6 - - 13 7 ESE 1025,9 30 60 0,0
25.06.2018 07:00:00 16,6 10,6 - - 9 5 ESE 1025,8 30 54 0,0
25.06.2018 06:00:00 11,8 9,2 - - 5 3 ESE 1025,8 28 6 0,0
25.06.2018 05:00:00 10,9 9,2 - - 0 0 N 1025,7 26 0 0,0
25.06.2018 04:00:00 11,0 10,3 - - 4 2 E 1025,6 16 0 0,0
25.06.2018 03:00:00 11,4 10,6 - - 5 3 ENE 1025,5 14 0 0,0
25.06.2018 02:00:00 12,9 11,7 - - 9 5 ENE 1025,7 12 0 0,0
25.06.2018 01:00:00 13,1 12,8 - - 8 4 NE 1025,8 12 - 0,0
25.06.2018 00:00:00 13,4 12,8 - - 8 4 NE 1025,8 14 0 0,0
24.06.2018 23:00:00 14,1 13,0 - - 9 5 NE 1025,6 14 0 0,0
24.06.2018 22:00:00 14,2 13,5 - - 8 4 NE 1025,5 16 6 0,0
24.06.2018 21:00:00 15,0 14,0 - - 5 3 N 1025,1 20 6 0,0
24.06.2018 20:00:00 17,2 14,3 - - 5 3 N 1024,7 24 60 0,0
24.06.2018 19:00:00 17,3 13,0 - - 8 4 N 1024,8 20 60 0,0
24.06.2018 18:00:00 17,6 12,4 - - 11 6 N 1024,8 12 60 0,0
24.06.2018 17:00:00 18,6 11,6 - - 11 6 N 1025,0 35 60 0,0
24.06.2018 16:00:00 18,9 13,1 - - 15 8 N 1025,0 20 60 0,0
24.06.2018 15:00:00 19,6 12,1 - - 13 7 N 1025,0 20 60 0,0
24.06.2018 14:00:00 21,0 11,4 - - 11 6 N 1025,2 30 60 0,0
24.06.2018 13:00:00 19,8 11,6 - - 9 5 N 1025,4 20 60 0,0
24.06.2018 12:00:00 19,0 13,1 - - 11 6 N 1025,6 20 60 0,0
24.06.2018 11:00:00 18,6 13,2 - - 11 6 N 1025,5 20 60 0,0
24.06.2018 10:00:00 17,6 12,9 17,0 16,0 11 6 N 1025,4 20 60 0,0
24.06.2018 09:00:00 16,9 13,2 - - 8 4 NNE 1025,6 20 60 0,0
24.06.2018 08:00:00 15,1 12,4 - - 11 6 NE 1025,7 25 60 0,0
24.06.2018 07:00:00 13,5 10,2 - - 9 5 NE 1025,7 26 54 0,0
24.06.2018 06:00:00 11,8 8,0 - - 9 5 NE 1025,6 24 0 0,0
24.06.2018 05:00:00 11,8 7,1 - - 8 4 NE 1025,5 18 0 0,0
24.06.2018 04:00:00 12,4 7,9 - - 9 5 ENE 1025,7 18 0 0,0
24.06.2018 03:00:00 11,9 10,3 - - 9 5 ENE 1026,1 18 0 0,0
24.06.2018 02:00:00 12,1 10,1 - - 9 5 ENE 1026,6 18 0 0,0
24.06.2018 01:00:00 11,9 9,2 - - 8 4 NE 1027,0 20 - 0,0
24.06.2018 00:00:00 12,5 9,0 - - 8 4 NE 1027,2 20 0 0,0
23.06.2018 23:00:00 13,1 9,7 - - 8 4 NE 1027,6 22 0 0,0
23.06.2018 22:00:00 14,0 9,9 - - 8 4 ENE 1027,6 24 0 0,0
23.06.2018 21:00:00 14,8 10,9 - - 8 4 NE 1027,4 30 54 0,0
23.06.2018 20:00:00 15,8 10,6 - - 8 4 NNE 1027,4 30 60 0,0
23.06.2018 19:00:00 16,6 9,3 - - 11 6 N 1027,5 25 60 0,0
23.06.2018 18:00:00 16,8 10,3 - - 11 6 N 1027,9 25 60 0,0
23.06.2018 17:00:00 17,1 10,8 - - 9 5 N 1028,4 30 48 0,0
23.06.2018 16:00:00 17,7 11,9 - - 11 6 N 1028,8 30 60 0,0
23.06.2018 15:00:00 17,5 12,7 - - 11 6 NW 1029,2 30 60 0,0
23.06.2018 14:00:00 18,2 13,3 - - 13 7 NNW 1029,4 40 60 0,0
23.06.2018 13:00:00 19,3 12,2 - - 8 4 NNW 1029,6 50 60 0,0
23.06.2018 12:00:00 20,3 4,8 - - 9 5 ESE 1029,7 50 60 0,0
23.06.2018 11:00:00 19,1 7,6 - - 9 5 SSE 1029,8 50 60 0,0
23.06.2018 10:00:00 18,3 8,8 16,7 16,0 13 7 SSE 1029,9 50 60 0,0
23.06.2018 09:00:00 18,3 9,2 - - 9 5 ESE 1029,8 50 60 0,0
23.06.2018 08:00:00 16,6 10,8 - - 5 3 E 1029,9 50 60 0,0
23.06.2018 07:00:00 12,7 10,8 - - 5 3 ENE 1029,9 27 60 0,0
23.06.2018 06:00:00 10,4 9,9 - - 8 4 E 1030,1 15 6 0,0
23.06.2018 05:00:00 9,9 9,5 - - 9 5 E 1030,4 10 0 0,0
23.06.2018 04:00:00 9,7 9,2 - - 8 4 ENE 1030,5 12 0 0,0
23.06.2018 03:00:00 10,2 9,5 - - 8 4 NE 1030,3 15 0 0,0
23.06.2018 02:00:00 10,5 9,7 - - 11 6 ENE 1030,6 12 0 0,0
23.06.2018 01:00:00 10,4 9,7 - - 9 5 ENE 1031,0 12 - 0,0
23.06.2018 00:00:00 10,5 9,8 - - 8 4 NE 1031,5 11 0 0,0
22.06.2018 23:00:00 11,1 9,9 - - 9 5 NE 1031,5 15 0 0,0
22.06.2018 22:00:00 11,6 10,0 - - 9 5 NNE 1031,2 15 18 0,0
22.06.2018 21:00:00 12,7 9,9 - - 15 8 NNE 1031,1 16 60 0,0
22.06.2018 20:00:00 13,6 10,1 - - 16 9 NNE 1031,3 19 54 0,0
22.06.2018 19:00:00 13,8 10,3 - - 18 10 N 1031,6 18 48 0,0
22.06.2018 18:00:00 14,3 10,3 - - 21 11 N 1031,8 18 60 0,0
22.06.2018 17:00:00 14,0 9,7 - - 21 11 N 1031,9 20 60 0,0
22.06.2018 16:00:00 14,5 9,4 - - 18 10 N 1032,3 25 60 0,0
22.06.2018 15:00:00 14,2 9,1 - - 22 12 N 1032,5 35 60 0,0
22.06.2018 14:00:00 14,7 9,7 - - 21 11 N 1032,6 40 60 0,0
22.06.2018 13:00:00 13,9 9,1 - - 18 10 NNE 1033,0 50 60 0,0
22.06.2018 12:00:00 14,1 9,2 - - 21 11 N 1033,0 50 60 0,0
22.06.2018 11:00:00 14,2 8,8 - - 22 12 N 1033,1 50 60 0,0
22.06.2018 10:00:00 13,4 7,9 16,5 16,2 21 11 NNE 1033,0 40 60 0,0
22.06.2018 09:00:00 13,4 8,7 - - 21 11 NNE 1032,9 40 60 0,0
22.06.2018 08:00:00 12,6 8,9 - - 21 11 NNE 1032,9 40 60 0,0
22.06.2018 07:00:00 11,9 9,0 - - 13 7 NE 1032,7 35 60 0,0
22.06.2018 06:00:00 10,2 8,1 - - 13 7 NE 1032,6 30 6 0,0
22.06.2018 05:00:00 10,2 8,0 - - 11 6 NE 1032,3 30 0 0,0
22.06.2018 04:00:00 10,8 7,7 - - 13 7 NE 1032,3 25 0 0,0
22.06.2018 03:00:00 11,5 7,5 - - 15 8 NE 1032,0 30 0 0,0
22.06.2018 02:00:00 12,0 6,7 - - 16 9 NE 1032,0 30 0 0,0
22.06.2018 01:00:00 12,3 6,1 - - 18 10 NE 1032,1 35 - 0,0
22.06.2018 00:00:00 12,3 6,0 - - 21 11 NE 1032,1 30 0 0,0
21.06.2018 23:00:00 12,4 6,5 - - 21 11 NNE 1032,0 35 0 0,0
21.06.2018 22:00:00 12,4 5,3 - - 24 13 NNE 1031,5 35 24 0,0
21.06.2018 21:00:00 12,8 6,6 - - 18 10 NNE 1031,2 40 60 0,0
21.06.2018 20:00:00 13,5 5,9 - - 26 14 NNE 1030,9 27 60 0,0
21.06.2018 19:00:00 13,7 7,3 - - 28 15 NNE 1030,9 24 60 0,0
21.06.2018 18:00:00 14,1 8,3 - - 24 13 NNE 1030,8 22 60 0,0
21.06.2018 17:00:00 13,7 8,1 - - 24 13 N 1030,7 10 60 0,0
21.06.2018 16:00:00 13,9 8,2 - - 28 15 NNE 1030,5 28 54 0,0
21.06.2018 15:00:00 13,4 7,7 - - 26 14 NNE 1030,5 28 24 0,0
21.06.2018 14:00:00 13,6 7,9 - - 24 13 N 1030,3 24 36 0,0
21.06.2018 13:00:00 13,5 6,5 - - 26 14 NNE 1029,8 26 54 0,0
21.06.2018 12:00:00 13,7 6,3 - - 24 13 NNE 1029,8 24 54 0,0
21.06.2018 11:00:00 13,7 6,6 - - 24 13 NNE 1029,5 26 54 0,0
21.06.2018 10:00:00 13,1 5,8 17,0 16,2 29 16 NNE 1029,1 28 60 0,0
21.06.2018 09:00:00 12,9 7,3 - - 28 15 NNE 1028,6 30 60 0,0
21.06.2018 08:00:00 12,1 7,8 - - 26 14 N 1027,8 28 36 0,0
21.06.2018 07:00:00 12,1 7,8 - - 28 15 NNE 1027,3 20 0 0,0
21.06.2018 06:00:00 12,1 8,1 - - 22 12 NNE 1026,9 20 0 0,0
21.06.2018 05:00:00 12,1 8,3 - - 26 14 NNE 1026,2 30 0 0,0
21.06.2018 04:00:00 12,7 10,8 - - 24 13 NNE 1025,9 15 0 0,0
21.06.2018 03:00:00 12,3 11,3 - - 13 7 NNW 1025,6 15 0 0,0
21.06.2018 02:00:00 12,1 10,4 - - 15 8 NNW 1025,3 20 0 0,0
21.06.2018 01:00:00 12,3 10,1 - - 16 9 NNW 1025,2 25 - 0,0
21.06.2018 00:00:00 12,3 9,5 - - 13 7 N 1025,1 30 0 0,0
20.06.2018 23:00:00 12,5 10,1 - - 16 9 N 1024,7 30 0 0,0
20.06.2018 22:00:00 12,7 10,3 - - 18 10 N 1024,2 30 0 0,0
20.06.2018 21:00:00 13,4 11,1 - - 21 11 N 1023,4 25 0 0,0
20.06.2018 20:00:00 13,5 12,6 - - 21 11 N 1023,1 8 0 0,0
20.06.2018 19:00:00 14,2 13,8 - - 16 9 N 1022,6 3,0 0 0,0
20.06.2018 18:00:00 15,7 13,5 - - 15 8 NW 1022,2 19 0 0,0
20.06.2018 17:00:00 15,4 14,0 - - 13 7 WNW 1022,0 14 6 0,0
20.06.2018 16:00:00 17,0 14,9 - - 13 7 WNW 1022,2 11 0 0,0
20.06.2018 15:00:00 15,3 15,0 - - 16 9 WNW 1022,4 1,5 0 0,2
20.06.2018 14:00:00 16,4 15,7 - - 16 9 WNW 1022,2 7 0 0,0
20.06.2018 13:00:00 16,9 16,0 - - 15 8 SW 1022,2 4,5 0 0,0
20.06.2018 12:00:00 16,2 15,8 - - 16 9 SW 1022,2 3,5 0 0,0
20.06.2018 11:00:00 15,3 15,2 - - 16 9 SSW 1022,0 2,5 0 0,0
20.06.2018 10:00:00 14,9 14,8 17,4 16,0 18 10 SW 1022,0 1,4 0 0,0
20.06.2018 09:00:00 14,7 14,7 - - 16 9 SW 1022,1 1,1 0 0,0
20.06.2018 08:00:00 14,5 14,4 - - 13 7 SW 1022,1 1,3 0 0,0
20.06.2018 07:00:00 14,0 14,0 - - 15 8 SSW 1021,9 0,6 0 0,0
20.06.2018 06:00:00 13,7 13,6 - - 16 9 SSW 1021,8 8 0 0,0
20.06.2018 05:00:00 14,0 14,0 - - 16 9 SSW 1021,7 0,3 0 0,0
20.06.2018 04:00:00 14,1 14,1 - - 18 10 SSW 1022,0 0,2 0 0,0
20.06.2018 03:00:00 14,2 14,1 - - 21 11 SW 1022,4 0,8 0 0,0
20.06.2018 02:00:00 14,4 14,3 - - 15 8 SSW 1022,6 1,0 0 0,0
20.06.2018 01:00:00 14,3 14,1 - - 16 9 SSW 1022,9 2,0 - 0,0
20.06.2018 00:00:00 14,4 14,2 - - 13 7 SSW 1023,2 3,0 0 0,0
19.06.2018 23:00:00 14,9 13,9 - - 16 9 SW 1023,5 5 0 0,0
19.06.2018 22:00:00 15,5 14,7 - - 13 7 SW 1023,6 8 0 0,0
19.06.2018 21:00:00 16,0 14,8 - - 13 7 SSW 1023,4 8 0 0,0
19.06.2018 20:00:00 16,8 15,1 - - 15 8 SW 1023,7 15 0 0,0

tt = Température de l'air
td = dewpoint
tt -20cm = Température de l'air -20cm
tt -100cm = Température de l'air -100cm
ff = Vitesse du vent
dd = Direction du vent
ppp = reduced air pressure
vv = visibility
sd = Ensoleillement
rr = Quantités de précipitations

stations d'obs. à proximité